This is the latest recevied weather packets stored in our database for station/object KK6LZB. If no packets are shown the sender has not sent any weather packets the latest 10 day(s).
| Time | Temp. | Humidity | Pressure | Rain* | Wind** | Luminosity | Snow |
|---|---|---|---|---|---|---|---|
| 1778017653 | 18.89° C | 62% | 1016.9 hPa | 0 mm | - | 613 W/m² | - |
| 1778017350 | 20° C | 62% | 1017 hPa | 0 mm | - | 623 W/m² | - |
| 1778017047 | 20° C | 60% | 1017.1 hPa | 0 mm | - | 631 W/m² | - |
| 1778016744 | 20° C | 59% | 1017 hPa | 0 mm | - | 642 W/m² | - |
| 1778016440 | 21.11° C | 56% | 1017 hPa | 0 mm | - | 650 W/m² | - |
| 1778016138 | 20.56° C | 58% | 1017.1 hPa | 0 mm | - | 657 W/m² | - |
| 1778015835 | 20° C | 57% | 1017.1 hPa | 0 mm | - | 665 W/m² | - |
| 1778015532 | 19.44° C | 61% | 1017.2 hPa | 0 mm | - | 673 W/m² | - |
| 1778015228 | 20.56° C | 59% | 1017.4 hPa | 0 mm | - | 679 W/m² | - |
| 1778014925 | 20° C | 58% | 1017.2 hPa | 0 mm | - | 684 W/m² | - |
| 1778014623 | 19.44° C | 59% | 1017.2 hPa | 0 mm | - | 690 W/m² | - |
| 1778014321 | 20° C | 59% | 1017.2 hPa | 0 mm | - | 698 W/m² | - |
| 1778014017 | 19.44° C | 60% | 1017.2 hPa | 0 mm | - | 700 W/m² | - |
| 1778013715 | 20.56° C | 60% | 1017.1 hPa | 0 mm | - | 709 W/m² | - |
| 1778013412 | 20° C | 63% | 1017.1 hPa | 0 mm | - | 715 W/m² | - |
| 1778013108 | 19.44° C | 63% | 1017.3 hPa | 0 mm | - | 720 W/m² | - |
| 1778012804 | 19.44° C | 64% | 1017.4 hPa | 0 mm | - | 732 W/m² | - |
| 1778012501 | 19.44° C | 62% | 1017.2 hPa | 0 mm | - | 738 W/m² | - |
| 1778012197 | 20° C | 65% | 1017.2 hPa | 0 mm | - | 751 W/m² | - |
| 1778011895 | 19.44° C | 65% | 1017.5 hPa | 0 mm | - | 687 W/m² | - |
| 1778011593 | 18.89° C | 66% | 1017.4 hPa | 0 mm | - | 698 W/m² | - |
| 1778011290 | 18.89° C | 65% | 1017.3 hPa | 0 mm | - | 521 W/m² | - |
| 1778010986 | 18.33° C | 67% | 1017.3 hPa | 0 mm | - | 479 W/m² | - |
| 1778010683 | 19.44° C | 64% | 1017.3 hPa | 0 mm | - | 483 W/m² | - |
| 1778010380 | 20° C | 61% | 1017.3 hPa | 0 mm | - | 778 W/m² | - |
* Rain latest hour (hover to see other rain measurements)
** Current wind speed in m/s (hover to see current wind gust speed)